Location: Pedholt
(56.0260°N, 10.2097°E)
Time: 06:13:08
(UTC+00:00)

Meteor 1-29 - Pass Details

Date: 14 July 2020
Orbit: 440 x 459 km, 97.7° (Epoch: 14 August)

Event Time Altitude Azimuth Distance (km) Brightness Sun altitude
Rises 00:52:20 0° 11° (NNE) 2,466 8.7 -10.2°
Reaches altitude 10° 00:54:24 10° 7° (N) 1,592 7.1 -10.1°
Maximum altitude 00:57:43 51° 291° (WNW) 579 3.4 -9.9°
Enters shadow 01:00:31 14° 216° (SW) 1,379 4.7 -9.8°
